KD5OH Weather Reports


time (UTC)temp
C
wind
direction
speed
KPH
gust
KPH
rain 1hr
cm
rain 24hr
cm
rain mn
cm
humidity
%
barometer
mb
20260906111628 20 305 0.0 1.6 0.00 0.00 0.00 56 1017.8
20260906110141 20 306 0.0 3.2 0.00 0.00 0.00 56 1017.5
20260906104637 21 47 0.0 1.6 0.00 0.00 0.00 55 1017.3
20260906103128 21 47 0.0 1.6 0.00 0.00 0.00 55 1017.3
20260906101625 21 47 0.0 4.8 0.00 0.00 0.00 54 1017.3
20260906100137 21 101 0.0 1.6 0.00 0.00 0.00 54 1017.2
20260906094629 21 163 0.0 0.0 0.00 0.00 0.00 55 1017.2
20260906093126 21 163 0.0 0.0 0.00 0.00 0.00 54 1017.1
20260906091638 22 166 0.0 3.2 0.00 0.00 0.00 54 1017.0
20260906090135 22 213 1.6 4.8 0.00 0.00 0.00 53 1016.8
20260906084625 22 166 0.0 3.2 0.00 0.00 0.00 52 1016.9
20260906083122 22 343 0.0 0.0 0.00 0.00 0.00 51 1017.0
20260906081633 22 343 0.0 0.0 0.00 0.00 0.00 50 1017.0
20260906080126 23 343 0.0 1.6 0.00 0.00 0.00 49 1016.9
20260906074641 23 343 0.0 0.0 0.00 0.00 0.00 48 1016.8
20260906073134 23 343 0.0 0.0 0.00 0.00 0.00 49 1017.0
20260906071630 23 343 0.0 1.6 0.00 0.00 0.00 48 1017.1
20260906070123 24 336 1.6 3.2 0.00 0.00 0.00 48 1017.1
20260906064639 24 338 0.0 1.6 0.00 0.00 0.00 48 1017.2
20260906063131 25 322 0.0 1.6 0.00 0.00 0.00 48 1017.5
20260906061642 25 21 0.0 1.6 0.00 0.00 0.00 48 1017.4
20260906060138 25 120 0.0 0.0 0.00 0.00 0.00 47 1017.5
20260906054630 25 120 0.0 1.6 0.00 0.00 0.00 46 1017.5
20260906053127 25 190 1.6 4.8 0.00 0.00 0.00 46 1017.6
20260906051638 25 156 0.0 1.6 0.00 0.00 0.00 48 1017.5
20260906050134 25 156 0.0 0.0 0.00 0.00 0.00 47 1017.3
20260906044625 25 242 0.0 0.0 0.00 0.00 0.00 47 1017.4
20260906043154 25 240 0.0 1.6 0.00 0.00 0.00 47 1017.3
20260906041629 26 246 0.0 3.2 0.00 0.00 0.00 45 1017.1
20260906040122 26 250 3.2 8.0 0.00 0.00 0.00 44 1017.2
20260906034638 26 213 0.0 3.2 0.00 0.00 0.00 42 1017.0
20260906033131 26 203 0.0 0.0 0.00 0.00 0.00 42 1016.9
20260906031624 26 203 0.0 0.0 0.00 0.00 0.00 42 1016.8
20260906030138 26 203 0.0 0.0 0.00 0.00 0.00 42 1016.5
20260906024629 27 240 0.0 0.0 0.00 0.00 0.00 41 1016.4
20260906023126 27 240 0.0 1.6 0.00 0.00 0.00 40 1016.4
20260906021638 27 235 0.0 1.6 0.00 0.00 0.00 40 1016.4
20260906020135 28 258 1.6 6.4 0.00 0.00 0.00 39 1016.3
20260906014647 28 245 0.0 1.6 0.00 0.00 0.00 38 1016.1
20260906013159 28 6 3.2 9.7 0.00 0.00 0.00 38 1016.0
20260906011634 30 69 9.7 14.5 0.00 0.00 0.00 36 1016.0
20260906010127 31 359 1.6 12.9 0.00 0.00 0.00 31 1015.9
20260906004642 32 234 4.8 14.5 0.00 0.00 0.00 29 1015.8
20260906003134 33 213 4.8 9.7 0.00 0.00 0.00 28 1015.9
20260906001625 33 254 6.4 16.1 0.00 0.00 0.00 28 1015.8
20260906000141 32 160 11.3 24.1 0.00 0.00 0.00 29 1015.9
20260905234634 32 171 16.1 27.4 0.00 0.00 0.00 28 1016.0
20260905233130 32 142 16.1 32.2 0.00 0.00 0.00 28 1015.9
20260905231621 33 172 25.7 35.4 0.00 0.00 0.00 26 1015.9
20260905230134 35 230 6.4 20.9 0.00 0.00 0.00 25 1015.9
20260905224631 34 248 6.4 12.9 0.00 0.00 0.00 25 1015.8
20260905223144 35 283 9.7 14.5 0.00 0.00 0.00 25 1015.9
20260905221639 34 297 9.7 19.3 0.00 0.00 0.00 25 1015.8
20260905220131 35 253 6.4 16.1 0.00 0.00 0.00 25 1015.8
20260905214626 35 202 4.8 19.3 0.00 0.00 0.00 25 1015.7
20260905213201 34 347 8.0 17.7 0.00 0.00 0.00 26 1015.8
20260905211631 35 241 8.0 16.1 0.00 0.00 0.00 25 1016.1
20260905210128 35 270 9.7 17.7 0.00 0.00 0.00 25 1016.4
20260905204700 34 340 9.7 16.1 0.00 0.00 0.00 27 1016.6
20260905203156 34 275 8.0 12.9 0.00 0.00 0.00 28 1016.8
20260905201646 34 263 8.0 12.9 0.00 0.00 0.00 28 1017.0
20260905200138 34 297 8.0 14.5 0.00 0.00 0.00 28 1017.2
20260905194653 33 308 1.6 9.7 0.00 0.00 0.00 30 1017.4
20260905193124 33 181 3.2 9.7 0.00 0.00 0.00 29 1017.7
20260905191620 32 257 6.4 11.3 0.00 0.00 0.00 31 1017.9
20260905190133 32 266 4.8 11.3 0.00 0.00 0.00 33 1018.3
20260905184621 31 116 3.2 11.3 0.00 0.00 0.00 35 1018.6
20260905183139 31 102 4.8 11.3 0.00 0.00 0.00 35 1018.9
20260905181650 31 149 3.2 8.0 0.00 0.00 0.00 36 1018.9
20260905180126 31 208 6.4 12.9 0.00 0.00 0.00 35 1019.2
20260905174637 31 295 1.6 9.7 0.00 0.00 0.00 37 1019.5
20260905173130 30 210 3.2 11.3 0.00 0.00 0.00 39 1019.7
20260905171627 29 211 4.8 9.7 0.00 0.00 0.00 40 1019.7
20260905170141 28 195 1.6 8.0 0.00 0.00 0.00 42 1019.4
20260905164635 28 251 8.0 11.3 0.00 0.00 0.00 43 1019.5
20260905163127 27 120 6.4 11.3 0.00 0.00 0.00 46 1019.6
20260905161624 27 155 6.4 12.9 0.00 0.00 0.00 47 1019.6
20260905160136 26 197 6.4 12.9 0.00 0.00 0.00 48 1019.7
20260905154629 26 155 6.4 12.9 0.00 0.00 0.00 51 1019.9
20260905153126 26 132 8.0 12.9 0.00 0.00 0.00 51 1019.7
20260905151637 26 158 8.0 16.1 0.00 0.00 0.00 51 1019.8
20260905150134 26 157 9.7 17.7 0.00 0.00 0.00 52 1019.8
20260905144646 25 165 11.3 17.7 0.00 0.00 0.00 53 1019.8
20260905143121 25 146 12.9 19.3 0.00 0.00 0.00 54 1019.7
20260905141635 25 153 11.3 19.3 0.00 0.00 0.00 54 1019.6
20260905134622 23 157 8.0 17.7 0.00 0.00 0.00 56 1019.3
20260905133134 23 147 6.4 16.1 0.00 0.00 0.00 57 1019.2
20260905131650 22 137 6.4 14.5 0.00 0.00 0.00 58 1018.9
20260905130121 21 132 6.4 9.7 0.00 0.00 0.00 57 1018.7
20260905124654 21 151 4.8 9.7 0.00 0.00 0.00 57 1018.5
20260905123129 21 133 6.4 9.7 0.00 0.00 0.00 58 1018.2
20260905121641 21 146 4.8 11.3 0.00 0.00 0.00 58 1018.0
20260905120136 21 147 3.2 9.7 0.00 0.00 0.00 58 1017.7
20260905114628 21 156 4.8 11.3 0.00 0.00 0.00 59 1017.9
20260905113124 20 142 3.2 6.4 0.00 0.00 0.00 58 1017.7